e作者how0107 (LEVI'S)
看板NPUST
標題[請益] 關於機車機油
時間Tue Apr 13 02:29:08 2010
小弟最近想換機油
不知道是否有同學知道這裡有哪間機車行
有再換REPSOL 10W 50
如果可以的話
順便說一下價錢
感激不盡
感謝C大 已修正
--
※ 發信站: 批踢踢實業坊(ptt.cc)
◆ From: 114.33.222.101
1F:→ cashjay:活水豆花隔壁有可以去問問。 04/13 02:54
2F:推 TRIGUNKING:換好油不如常換油...... 04/13 09:01
3F:推 justice7696:殼牌 10W40 350 cepso 10W50 400 04/13 11:47
4F:→ justice7696:REPSOL 之前覺得還好 不過屏東市有一間有 04/13 11:47
5F:推 pk987456:推屏科大機油!!! 好物,100CC 直衝120KM/H 04/13 11:55
6F:推 kimo9966:原來機油可以讓100CC衝120...真強...Orz. 04/13 12:27
7F:→ CottonSR:幫原PO更正一下 是10W50才對XD 04/13 12:54
※ 編輯: how0107 來自: 140.127.32.118 (04/13 13:13)
8F:→ zenki000000:曾去換機油時 車行老闆說 你用很好的油喔 04/13 16:51
9F:→ zenki000000:結果只是罐100左右的中油油品... 04/13 16:51
10F:→ pk987456:屏科外機車行..不意外..哈 04/13 16:57
11F:→ a0004175:中油的一百就不錯...國外的抽很多利潤...中油工作的親戚 04/13 17:42
12F:→ a0004175:也說...機油利潤真的很高~ 04/13 17:42
13F:→ a0004175:樓上...100cc衝120km/hr...這種事情我幹過~ 04/13 17:43
14F:→ a0004175:結果是...花9000元引擎大修~因為吃油吃太嚴重~ 04/13 17:44
15F:→ a0004175:吃到剩下1xx cc~ 那時候心都在淌血~ 壓歲錢沒了 04/13 17:45
16F:→ ROCMC:10W50可以選TOTAL的 價錢也漂亮許多 你這罐料錢要四百多 04/13 19:48
17F:→ CottonSR:推樓上 這罐在Biker板有人PO心得 可參考看看 04/13 20:23
18F:→ pk987456:花九千塊直接改了 04/13 21:12
19F:推 a0004175:9000無法改...除非工不用錢...因為修的地方太多了~ 04/13 21:16
20F:→ free12377:也推TOTAL...不難用 04/13 22:02
21F:→ pk987456:= =" 屏科大機油 威力十足阿.. 04/13 23:14
22F:→ how0107:我看不太懂屏科大機油耶 有人可以解釋一下嗎? 04/14 03:56
23F:推 SLEEPxN:我自己有在幫人換機油,油品是德國RMV機油,一般市面看不 04/14 14:53
24F:→ SLEEPxN:到,價格250、350、450。分別是15W40、10W40、5W40和10W60 04/14 14:55
25F:→ SLEEPxN:可以來換換看,只是怕你一換就上癮^^,我擋車自己加了2年 04/14 14:56
26F:→ SLEEPxN:想要試試看的話,站內信給我吧,力豹士和阿吉普裂化比較快 04/14 14:58
27F:→ how0107:謝謝S大,太晚看到你推文,已經換了,下次有需要再找你 04/14 16:27